E20ZNR-1 Weather Reports


time (UTC)temp
C
wind
direction
speed
KPH
gust
KPH
rain 1hr
cm
rain 24hr
cm
rain mn
cm
humidity
%
barometer
mb
20260509123924 31 0 0.0 0.0 0.00 0.00 0.00 85 1004.0
20260509122358 31 0 0.0 0.0 0.00 0.00 0.00 84 1003.0
20260509120834 31 0 0.0 0.0 0.00 0.00 0.00 84 1003.0
20260509115308 31 0 0.0 0.0 0.00 0.00 0.00 81 1003.0
20260509113743 32 0 0.0 0.0 0.00 0.00 0.00 76 1003.0
20260509112219 32 0 0.0 0.0 0.00 0.00 0.00 73 1003.0
20260509110654 32 0 0.0 0.0 0.00 0.00 0.00 69 1003.0
20260509105128 33 0 0.0 0.0 0.00 0.00 0.00 66 1002.0
20260509103604 33 0 0.0 0.0 0.00 0.00 0.00 62 1002.0
20260509102037 34 0 0.0 0.0 0.00 0.00 0.00 59 1002.0
20260509100513 34 0 0.0 0.0 0.00 0.00 0.00 58 1002.0
20260509094948 35 0 0.0 0.0 0.00 0.00 0.00 56 1002.0
20260509093423 36 0 0.0 0.0 0.00 0.00 0.00 54 1002.0
20260509091857 36 0 0.0 0.0 0.00 0.00 0.00 54 1002.0
20260509090331 36 0 0.0 0.0 0.00 0.00 0.00 55 1002.0
20260509084806 35 0 0.0 0.0 0.00 0.00 0.00 55 1002.0
20260509083240 35 0 0.0 0.0 0.00 0.00 0.00 57 1002.0
20260509081714 36 0 0.0 0.0 0.00 0.00 0.00 51 1003.0
20260509080149 36 0 0.0 0.0 0.00 0.00 0.00 53 1003.0
20260509074623 35 0 0.0 0.0 0.00 0.00 0.00 57 1003.0
20260509073058 36 0 0.0 0.0 0.00 0.00 0.00 57 1003.0
20260509071532 36 0 0.0 0.0 0.00 0.00 0.00 55 1004.0
20260509070007 36 0 0.0 0.0 0.00 0.00 0.00 61 1004.0
20260509064442 35 0 0.0 0.0 0.00 0.00 0.00 61 1004.0
20260509062917 36 0 0.0 0.0 0.00 0.00 0.00 60 1004.0
20260509061352 36 0 0.0 0.0 0.00 0.00 0.00 62 1005.0
20260509055826 36 0 0.0 0.0 0.00 0.00 0.00 61 1005.0
20260509054300 36 0 0.0 0.0 0.00 0.00 0.00 60 1006.0
20260509052735 35 0 0.0 0.0 0.00 0.00 0.00 63 1006.0
20260509051210 36 0 0.0 0.0 0.00 0.00 0.00 64 1006.0
20260509045644 35 0 0.0 0.0 0.00 0.00 0.00 68 1007.0
20260509044118 34 0 0.0 0.0 0.00 0.00 0.00 71 1007.0
20260509042553 34 0 0.0 0.0 0.00 0.00 0.00 68 1007.0
20260509041027 35 0 0.0 0.0 0.00 0.00 0.00 69 1007.0
20260509035502 34 0 0.0 0.0 0.00 0.00 0.00 72 1007.0
20260509033936 34 0 0.0 0.0 0.00 0.00 0.00 71 1008.0
20260509032410 34 0 0.0 0.0 0.00 0.00 0.00 70 1008.0
20260509030845 33 0 0.0 0.0 0.00 0.00 0.00 73 1008.0
20260509025320 35 0 0.0 0.0 0.00 0.00 0.00 73 1008.0
20260509023754 33 0 0.0 0.0 0.00 0.00 0.00 78 1008.0
20260509022227 37 0 0.0 0.0 0.00 0.00 0.00 67 1008.0
20260509020702 38 0 0.0 0.0 0.00 0.00 0.00 69 1008.0
20260509015137 37 0 0.0 0.0 0.00 0.00 0.00 78 1008.0
20260509013611 35 0 0.0 0.0 0.00 0.00 0.00 92 1008.0
20260509012047 33 0 0.0 0.0 0.00 0.00 0.00 99 1008.0
20260509010520 29 0 0.0 0.0 0.00 0.00 0.00 99 1008.0
20260509004953 29 0 0.0 0.0 0.00 0.00 0.00 99 1008.0
20260509003428 28 0 0.0 0.0 0.00 0.00 0.00 99 1008.0
20260509001903 27 0 0.0 0.0 0.00 0.00 0.00 99 1008.0
20260509000337 27 0 0.0 0.0 0.00 0.00 0.00 99 1008.0
20260508234812 27 0 0.0 0.0 0.00 0.00 0.00 99 1008.0
20260508233247 27 0 0.0 0.0 0.00 0.00 0.00 99 1007.0
20260508231721 27 0 0.0 0.0 0.00 0.00 0.00 99 1007.0
20260508230156 26 0 0.0 0.0 0.00 0.00 0.00 99 1007.0
20260508224631 26 0 0.0 0.0 0.00 0.00 0.00 99 1007.0
20260508223106 26 0 0.0 0.0 0.00 0.00 0.00 99 1006.0
20260508221541 26 0 0.0 0.0 0.00 0.00 0.00 99 1006.0
20260508220016 26 0 0.0 0.0 0.00 0.00 0.00 99 1006.0
20260508214451 27 0 0.0 0.0 0.00 0.00 0.00 99 1006.0
20260508212925 26 0 0.0 0.0 0.00 0.00 0.00 99 1006.0
20260508211359 26 0 0.0 0.0 0.00 0.00 0.00 99 1005.0
20260508205834 26 0 0.0 0.0 0.00 0.00 0.00 99 1005.0
20260508204309 27 0 0.0 0.0 0.00 0.00 0.00 99 1005.0
20260508202743 27 0 0.0 0.0 0.00 0.00 0.00 99 1005.0
20260508201218 27 0 0.0 0.0 0.00 0.00 0.00 99 1005.0
20260508195653 27 0 0.0 0.0 0.00 0.00 0.00 99 1005.0
20260508194126 27 0 0.0 0.0 0.00 0.00 0.00 99 1004.0
20260508192600 27 0 0.0 0.0 0.00 0.00 0.00 99 1005.0
20260508191529 27 0 0.0 0.0 0.00 0.00 0.00 99 1005.0
20260508190004 27 0 0.0 0.0 0.00 0.00 0.00 99 1005.0
20260508184438 27 0 0.0 0.0 0.00 0.00 0.00 99 1006.0
20260508182912 27 0 0.0 0.0 0.00 0.00 0.00 99 1006.0
20260508181347 27 0 0.0 0.0 0.00 0.00 0.00 99 1006.0
20260508175822 27 0 0.0 0.0 0.00 0.00 0.00 99 1006.0
20260508174256 27 0 0.0 0.0 0.00 0.00 0.00 99 1007.0
20260508172730 27 0 0.0 0.0 0.00 0.00 0.00 99 1007.0
20260508171205 27 0 0.0 0.0 0.00 0.00 0.00 99 1007.0
20260508165639 27 0 0.0 0.0 0.00 0.00 0.00 99 1007.0
20260508164114 27 0 0.0 0.0 0.00 0.00 0.00 99 1007.0
20260508162549 27 0 0.0 0.0 0.00 0.00 0.00 99 1007.0
20260508161022 27 0 0.0 0.0 0.00 0.00 0.00 99 1006.0
20260508155457 27 0 0.0 0.0 0.00 0.00 0.00 99 1006.0
20260508153932 27 0 0.0 0.0 0.00 0.00 0.00 1006.0
20260508152405 28 0 0.0 0.0 0.00 0.00 0.00 99 1007.0
20260508150840 28 0 0.0 0.0 0.00 0.00 0.00 99 1007.0
20260508145315 27 0 0.0 0.0 0.00 0.00 0.00 99 1007.0
20260508143750 27 0 0.0 0.0 0.00 0.00 0.00 99 1007.0
20260508142224 27 0 0.0 0.0 0.00 0.00 0.00 99 1007.0
20260508140659 28 0 0.0 0.0 0.00 0.00 0.00 99 1007.0
20260508135134 28 0 0.0 0.0 0.00 0.00 0.00 99 1007.0
20260508133609 28 0 0.0 0.0 0.00 0.00 0.00 99 1006.0
20260508132043 28 0 0.0 0.0 0.00 0.00 0.00 99 1006.0
20260508130519 28 0 0.0 0.0 0.00 0.00 0.00 99 1006.0